Location: Powder Track
(41.8531°N, 72.3584°W)
Time: 21:42:58
(UTC+00:00)

X-37B - Pass Details

Date: 30 June 2021
Orbit: 383 x 392 km, 45.0° (Epoch: 01 July)

Event Time Altitude Azimuth Distance (km) Brightness Sun altitude
Rises 03:17:02 0° 289° (WNW) 2,258 5.1 -21.3°
Reaches altitude 10° 03:19:06 10° 290° (WNW) 1,402 4.0 -21.4°
Enters shadow 03:21:19 42° 293° (WNW) 560 1.6 -21.6°
